Regional Weather Roundup
Issued by NWS Little Rock, AR

Home | Current Version | Previous Version | Graphics & Text | Print | Product List | Glossary On
Versions: 1 2 3 4 5 6 7 8 9 10 11 12 13 14 15 16 17 18 19 20 21 22 23 24 25 26 27 28 29 30 31 32 33 34 35 36 37 38 39 40 41
000
ASUS44 KLZK 250405
RWRLZK

WEATHER ROUNDUP FOR ARKANSAS
NATIONAL WEATHER SERVICE LITTLE ROCK AR
1000 PM CST WED DEC 24 2014

NOTE: "FAIR" INDICATES FEW OR NO CLOUDS BELOW 12,000 FEET WITH NO
SIGNIFICANT WEATHER AND/OR OBSTRUCTIONS TO VISIBILITY.

ARZ001-003-010-029-250500-
NORTHWEST ARKANSAS

CITY           SKY/WX    TMP DP  RH WIND       PRES   REMARKS
FAYETTEVILLE   CLEAR     29  28  96 CALM      29.96F
FORT SMITH     CLEAR     31  27  85 CALM      30.00F
HARRISON       CLOUDY    35  29  78 W3        29.95S
BENTONVILLE    CLEAR     32  27  80 SW5       29.95R WCI  27
ROGERS         CLEAR     31  28  89 S7        29.94F WCI  24
SILOAM SPGS    CLEAR     30  23  74 S5        29.96S WCI  25
HIGHFILL       CLEAR     31  28  89 SW5       29.94S WCI  26
$$

ARZ004-005-016-250500-
NORTH CENTRAL ARKANSAS

CITY           SKY/WX    TMP DP  RH WIND       PRES   REMARKS
BATESVILLE     CLOUDY    41  30  65 W6        29.98R
FLIPPIN        CLOUDY    39  27  60 W9        29.97R
MTN HOME       CLOUDY    38  29  70 W5        29.96R
$$

ARZ040-041-250500-
WEST CENTRAL ARKANSAS

CITY           SKY/WX    TMP DP  RH WIND       PRES   REMARKS
MENA           CLEAR     36  32  87 SW3       30.02R
MOUNT IDA      CLEAR     33  29  85 CALM      30.00R
$$

ARZ009-017-025-026-028-250500-
NORTHEAST ARKANSAS

CITY           SKY/WX    TMP DP  RH WIND       PRES   REMARKS
CORNING        CLOUDY    41  36  81 W12       29.96R
JONESBORO      CLOUDY    41  35  79 W9        29.97R
NEWPORT        CLOUDY    43  34  70 W6        30.00R
WALNUT RIDGE   CLOUDY    41  32  70 W7        29.97R
BLYTHEVILLE    CLEAR     40  35  83 W8        29.97R
$$

ARZ022-023-033-042-044-250500-
CENTRAL ARKANSAS

CITY           SKY/WX    TMP DP  RH WIND       PRES   REMARKS
LITTLE ROCK    CLOUDY    43  30  60 W12       30.03R
N LITTLE ROCK  CLOUDY    41  34  77 W5        30.03R
JACKSONVILLE   CLOUDY    42  33  70 W8        30.01R
SEARCY         CLOUDY    42  34  73 SW7       30.02R
HOT SPRINGS    CLEAR     38  31  76 W5        30.04R
RUSSELLVILLE   CLOUDY    41  31  67 W7        30.01R
CLINTON        CLOUDY    39  32  75 SW6       30.01R
$$

ARZ036-250500-
EAST ARKANSAS

CITY           SKY/WX    TMP DP  RH WIND       PRES   REMARKS
WEST MEMPHIS   CLOUDY    42  38  85 W5        29.99R
$$

ARZ050-053-066-070-073-250500-
SOUTHWEST ARKANSAS

CITY           SKY/WX    TMP DP  RH WIND       PRES   REMARKS
ARKADELPHIA    FAIR      35  35 100 CALM      30.07R
CAMDEN         PTCLDY    39  32  75 CALM      30.08R
TEXARKANA      CLEAR     34  31  88 CALM      30.06R
EL DORADO      CLEAR     35  32  88 CALM      30.08R
DE QUEEN       CLEAR     30  29  96 CALM      30.05R FOG
$$

ARZ056-057-069-250500-
SOUTHEAST ARKANSAS

CITY           SKY/WX    TMP DP  RH WIND       PRES   REMARKS
PINE BLUFF     CLOUDY    42  31  64 W5        30.05R
STUTTGART      CLOUDY    43  34  70 W13       30.03R
MONTICELLO     CLOUDY    42  36  79 W7        30.05S

$$





USA.gov is the U.S. government's official web portal to all federal, state and local government web resources and services.